Change the Weather History Date:

Friday, March 1, 2013

  Actual Average Record
Temperature  
Mean Temperature 44 °F -  
Max Temperature 50 °F 52 °F 79 °F (1976)
Min Temperature 39 °F 34 °F 11 °F (1980)
Degree Days  
Heating Degree Days 20    
Moisture  
Dew Point 26 °F    
Average Humidity 49    
Maximum Humidity 63    
Minimum Humidity 35    
Precipitation  
Precipitation 0.00 in - - ()
Sea Level Pressure  
Sea Level Pressure 29.82 in    
Wind  
Wind Speed 9 mph (WNW)    
Max Wind Speed 10 mph    
Max Gust Speed 18 mph    
Visibility 10 miles    
Events      
Averages and records for this station are not official NWS values.
T = Trace of Precipitation, MM = Missing Value Source: NWS Daily Summary

Daily Weather History Graph

Daily Weather History Graph

Search for Another Location

Airport or City:

Trip Planner

Search our weather history database for the weather conditions in past years. The results will help you decide how hot, cold, wet, or windy it might be!

Date:

Astronomy

Mar. 01, 2013 Rise Set
Actual Time 6:36 AM EST 6:00 PM EST
Civil Twilight 6:10 AM EST 6:26 PM EST
Nautical Twilight 5:40 AM EST 6:56 PM EST
Astronomical Twilight 5:10 AM EST 7:26 PM EST
Moon 10:23 PM EST (3/1) 8:28 AM EST (3/1)
Length of Visible Light 12h 15m
Length of Day
11h 23m
Waning Gibbous, 83% of the Moon is Illuminated
Mar 1
Waning Gibbous
Mar 4
Last Quarter
Mar 11
New
Mar 19
First Quarter
Mar 27
Full

Hourly Weather History & Observations

Time (EST) Temp. Windchill Dew Point Humidity Pressure Visibility Wind Dir Wind Speed Gust Speed Precip Events Conditions
12:54 AM 41.0 °F 35.2 °F 24.8 °F 53% 29.77 in 10.0 mi WNW 9.2 mph - N/A   Overcast
1:54 AM 42.1 °F 36.1 °F 27.0 °F 55% 29.77 in 10.0 mi WNW 10.4 mph - N/A   Overcast
2:54 AM 39.9 °F 33.9 °F 25.0 °F 55% 29.78 in 10.0 mi West 9.2 mph - N/A   Clear
3:54 AM 39.2 °F 35.0 °F 26.6 °F 61% 29.78 in 10.0 mi West 5.8 mph - N/A   Scattered Clouds
4:54 AM 39.2 °F 34.2 °F 26.6 °F 61% 29.78 in 10.0 mi West 6.9 mph - N/A   Overcast
5:54 AM 39.9 °F 34.5 °F 27.0 °F 60% 29.80 in 10.0 mi West 8.1 mph - N/A   Overcast
6:54 AM 39.9 °F 35.1 °F 28.0 °F 63% 29.81 in 10.0 mi West 6.9 mph - N/A   Overcast
7:54 AM 42.1 °F 38.4 °F 28.9 °F 60% 29.83 in 10.0 mi WNW 5.8 mph - N/A   Overcast
8:54 AM 44.6 °F 40.7 °F 28.4 °F 53% 29.84 in 10.0 mi WNW 6.9 mph - N/A   Overcast
9:54 AM 46.9 °F - 28.9 °F 50% 29.84 in 10.0 mi WNW 5.8 mph - N/A   Overcast
10:54 AM 48.9 °F - 28.0 °F 44% 29.83 in 10.0 mi NW 9.2 mph - N/A   Overcast
11:54 AM 48.9 °F - 26.1 °F 41% 29.82 in 10.0 mi NW 10.4 mph - N/A   Overcast
12:54 PM 48.0 °F - 25.0 °F 41% 29.82 in 10.0 mi NW 5.8 mph - N/A   Overcast
1:54 PM 50.0 °F - 23.0 °F 35% 29.80 in 10.0 mi West 9.2 mph 18.4 mph N/A   Overcast
2:54 PM 48.9 °F - 24.1 °F 38% 29.80 in 10.0 mi WNW 9.2 mph - N/A   Overcast
3:54 PM 48.0 °F - 26.1 °F 42% 29.80 in 10.0 mi WNW 10.4 mph - N/A   Overcast
4:54 PM 46.9 °F - 26.1 °F 44% 29.82 in 10.0 mi WNW 9.2 mph - N/A   Overcast
5:54 PM 46.4 °F 41.9 °F 26.6 °F 46% 29.83 in 10.0 mi WNW 9.2 mph - N/A   Overcast
6:54 PM 46.0 °F 41.9 °F 27.0 °F 47% 29.84 in 10.0 mi West 8.1 mph - N/A   Overcast
7:54 PM 46.0 °F 41.9 °F 25.0 °F 44% 29.86 in 10.0 mi WNW 8.1 mph - N/A   Overcast
8:54 PM 45.0 °F 40.6 °F 24.1 °F 44% 29.87 in 10.0 mi NW 8.1 mph - N/A   Overcast
9:54 PM 44.1 °F 39.0 °F 24.1 °F 45% 29.88 in 10.0 mi NW 9.2 mph - N/A   Overcast
10:54 PM 43.0 °F 37.2 °F 24.1 °F 47% 29.88 in 10.0 mi NW 10.4 mph - N/A   Overcast
11:02 PM 42.8 °F 37.0 °F 24.8 °F 49% 29.87 in 10.0 mi NW 10.4 mph - N/A   Overcast
11:54 PM 43.0 °F 37.2 °F 23.0 °F 45% 29.88 in 10.0 mi NNW 10.4 mph - N/A   Overcast